Regional Weather Roundup
Issued by NWS

Home | Current Version | Previous Version | Graphics & Text | Print | Product List | Glossary On
Versions: 1 2 3 4 5 6 7 8 9 10 11 12 13 14 15 16 17 18 19 20 21 22 23 24 25 26 27 28 29 30 31 32 33 34 35 36 37 38 39 40 41 42 43 44 45 46 47 48 49 50
000
ASUS43 KLSX 021607
RWRMO

WEATHER SUMMARY FOR MISSOURI
NATIONAL WEATHER SERVICE SPRINGFIELD MO
1100 AM CDT THU JUL 02 2015

NOTE: "FAIR" INDICATES FEW OR NO CLOUDS BELOW 12,000 FEET WITH NO
       SIGNIFICANT WEATHER AND/OR OBSTRUCTIONS TO VISIBILITY.
       CURRENT SKY AND/OR WEATHER CONDITIONS ARE NOT AVAILABLE FOR
       CHILLICOTHE AND FARMINGTON.

MOZ001>031-035>038-043-044-053-054-021700-
...NORTHERN AND WESTERN MISSOURI...

CITY           SKY/WX    TMP DP  RH WIND       PRES   REMARKS
KANSAS CTY INT CLOUDY    71  67  87 NE10      29.92F
KANSAS C DTWN  CLOUDY    73  69  87 NE9       29.90F
LEE`S SUMMIT   CLOUDY    70  68  93 NE13      29.92S
ST JOSEPH      CLOUDY    70  66  87 NE9       29.93S
CHILLICOTHE      N/A     69  64  84 NE8       29.96S
KIRKSVILLE     PTSUNNY   70  59  68 NE13      29.96F

$$
MOZ066>068-077>081-088>096-101>105-021700-
...SOUTHWEST MISSOURI...

CITY           SKY/WX    TMP DP  RH WIND       PRES   REMARKS
SPRINGFIELD    PTSUNNY   75  70  84 S8        29.87F
JOPLIN         CLOUDY    82  73  74 NW6       29.86S

$$
MOZ032>034-039>042-045>050-055>058-069>072-021700-
...CENTRAL MISSOURI...

CITY           SKY/WX    TMP DP  RH WIND       PRES   REMARKS
COLUMBIA       CLOUDY    69  66  90 NE10      29.93R FOG
JEFFERSON CITY CLOUDY    71  67  87 NE12      29.90R
ROLLA          CLOUDY    74  68  81 CALM      29.89S
SEDALIA        CLOUDY    72  69  90 NE9       29.92S FOG
WHITEMAN AFB   CLOUDY    71  70  97 E7        29.89F
WARRENSBURG    CLOUDY    70  68  94 NE8       29.90S FOG
OSAGE BEACH    CLOUDY    72  68  88 NE5       29.89F

$$
MOZ051-052-059>065-021700-
...EAST CENTRAL MISSOURI...

CITY           SKY/WX    TMP DP  RH WIND       PRES   REMARKS
ST LOUIS INTL  CLOUDY    68  60  75 N10       29.92R
SPIRIT OF STL  CLOUDY    65  62  90 N8        29.91R
ST CHARLES     CLOUDY    69  62  78 E9        29.91R

$$
MOZ072>076-082>087-097>100-106>115-021700-
...SOUTH CENTRAL AND SOUTHEAST MISSOURI...

CITY           SKY/WX    TMP DP  RH WIND       PRES   REMARKS
CAPE GIRARDEAU PTSUNNY   82  72  71 W9        29.85S
FARMINGTON     CLOUDY    75  68  78 NW8       29.92R
POPLAR BLUFF   MOSUNNY   82  70  66 W12       29.85
WEST PLAINS    MOSUNNY   79  69  71 SW13G20   29.90R

$$



USA.gov is the U.S. government's official web portal to all federal, state and local government web resources and services.